Flag for Isle of Man Weather past 2 weeks in Douglas, Isle of Man

Now
41 °F

Scattered clouds.


Feels Like: 29 °F
Forecast: N/A
Wind: 32 mph from West

Location: Isle Of Man / Ronaldsway Airport

Current Time: Jan 28, 2015 at 3:03:11 PM

Latest Report: Jan 28, 2015 at 2:20 PM


Visibility: N/A

Pressure: 29.45 "Hg

Humidity: 57%

Dew point: 27 °F

Location of DouglasLocation

Historic Weather in Douglas — Graph

°F

Douglas temperature yesterday

Maximum temperature yesterday: 46 °F (at 10:50 AM)
Minimum temperature yesterday: 45 °F (at 12:50 AM)
Average temperature yesterday: 45 °F

Past Weeks' High & Low Weather Summary

 TemperatureHumidityPressure
High50 °F (Jan 14, 9:50 PM)100% (Jan 14, 4:20 PM)30.39 "Hg (Jan 14, 4:20 PM)
Low32 °F (Jan 19, 5:20 AM)48% (Jan 18, 5:20 PM)28.65 "Hg (Jan 14, 10:50 PM)
Average42 °F78%29.81 "Hg
* Reported Jan 13 1:20 PM — Jan 28 1:50 PM, Douglas, Weather by CustomWeather, © 2014

Note: Actual official high and low records may vary slightly from our data, if they occured in-between our weather recording intervals... More about our weather records

Advertising

Douglas weather history for previous 24 hours

 ConditionsComfort  
Time TempWeatherWind HumidityBarometerVisibility
1:50 PM
Jan 28
41 °FScattered clouds.36 mph57%29.47 "HgN/A
1:20 PM39 °FScattered clouds.35 mph70%29.47 "HgN/A
12:50 PM41 °FSprinkles. Scattered clouds.39 mph66%29.47 "HgN/A
12:20 PM39 °FPassing clouds.24 mph70%29.45 "HgN/A
11:50 AM37 °FSprinkles. Scattered clouds.36 mph81%29.47 "HgN/A
11:20 AM41 °FPassing clouds.31 mph66%29.45 "HgN/A
10:50 AM41 °FPartly sunny.37 mph61%29.47 "HgN/A
10:20 AM41 °FScattered clouds.38 mph66%29.45 "HgN/A
9:50 AM39 °FScattered clouds.32 mph70%29.45 "HgN/A
9:20 AM39 °FScattered clouds.38 mph70%29.45 "HgN/A
8:50 AM39 °FScattered clouds.33 mph75%29.45 "HgN/A
8:20 AM39 °FSprinkles. Broken clouds.43 mph87%29.45 "HgN/A
7:50 AM41 °FSprinkles. Partly cloudy.41 mph76%29.42 "HgN/A
7:20 AM43 °FPassing clouds.24 mph81%29.42 "HgN/A
6:50 AM45 °FPassing clouds.21 mph87%29.42 "HgN/A
6:20 AM48 °FPassing clouds.32 mph82%29.42 "HgN/A
5:50 AM48 °FPassing clouds.26 mph87%29.45 "HgN/A
5:20 AM48 °FLight rain. Low clouds.28 mph94%29.47 "HgN/A
4:50 AM48 °FLight rain. Low clouds.26 mph94%29.50 "Hg5 mi
3:50 AM48 °FLow clouds.24 mph94%29.56 "HgN/A
2:50 AM48 °FDrizzle. Low clouds.23 mph94%29.65 "HgN/A
1:50 AM48 °FDrizzle. Low clouds.21 mph94%29.71 "HgN/A
12:50 AM48 °FLow clouds.22 mph87%29.77 "Hg5 mi
11:50 PM
Jan 27
46 °FOvercast.25 mph93%29.83 "HgN/A
10:50 PM46 °FMostly cloudy.24 mph87%29.89 "HgN/A
9:50 PM46 °FDrizzle. Overcast.25 mph87%29.95 "Hg4 mi
8:50 PM46 °FOvercast.20 mph82%29.98 "HgN/A
8:20 PM46 °FDrizzle. Overcast.20 mph76%30.01 "HgN/A
7:50 PM46 °FPassing clouds.18 mph76%30.04 "HgN/A
7:20 PM46 °FPartly cloudy.17 mph82%30.04 "HgN/A
6:50 PM46 °FPassing clouds.18 mph82%30.07 "HgN/A
6:20 PM46 °FPassing clouds.16 mph82%30.09 "HgN/A
5:50 PM46 °FPassing clouds.18 mph76%30.09 "HgN/A
5:20 PM46 °FPassing clouds.17 mph76%30.12 "HgN/A
4:50 PM46 °FPassing clouds.17 mph76%30.12 "HgN/A
4:20 PM46 °FPartly sunny.20 mph82%30.15 "HgN/A
3:50 PM45 °FBroken clouds.18 mph87%30.15 "HgN/A
3:20 PM45 °FDrizzle. Broken clouds.14 mph93%30.15 "HgN/A
Weather by CustomWeather, © 2014

See weather overviewHow to use our weather pages